Location: Claflin County Park
(44.8478°N, 87.5507°W)
Time: 10:01:49
(UTC+00:00)

Gbstr 26 Del rocket - Pass Details

Date: 10 December 2025
Orbit: 490 x 1218 km, 51.8° (Epoch: 21 January)

Event Time Altitude Azimuth Distance (km) Brightness Sun altitude
Rises 00:43:02 0° 257° (WSW) 2,719 7.7 -26.4°
Reaches altitude 10° 00:45:24 10° 264° (W) 1,762 6.4 -26.8°
Enters shadow 00:48:00 34° 291° (WNW) 850 4.2 -27.2°
